sat.trackr.live / text

‹ back to catalog

ONEWEB-0446

NORAD 51640 · 2022-012U

PAYLOAD ACTIVE UNKNOWN

§ Identity

Operator
Country
UK
Launch date
2022-02-10
Launch site
FRGUI
Launch vehicle
Mass (kg)
RCS (m²)

Purposes: comms

External: N2YO · Heavens-Above · Gunter

§ Orbital elements

Epoch: 2026-09-20T02:00:16.069248Z

Period
109.89 min
Inclination
87.8896°
Eccentricity
0.0001540
Mean motion
13.10371346 rev/d
Perigee alt
1,220.6 km
Apogee alt
1,222.9 km
Semi-major
7,599.9 km
B*
1.7153e-3
RAAN
17.3899°
Arg perigee
110.5995°
Mean anomaly
249.5297°
Rev number
22,175

§ Raw data

ONEWEB-04461 51640U 22012U   26263.08351932  .00000611  00000+0  17153-2 0  99992 51640  87.8896  17.3899 0001540 110.5995 249.5297 13.10371346221755

JSON: /api/v1/satellites/51640 · /tle

For live sub-satellite position, see the globe view (requires WebGL).

§ Visibility from observer

Set your observer location to see the next 7 days of passes ≥ 10°. The values pass through the URL so the page stays shareable.

No JS? Fill the form by hand. The geolocation button needs JavaScript.